Regional Weather Roundup
Issued by NWS

Home | Current Version | Previous Version | Text Only | Print | Product List | Glossary Off
Versions: 1 2 3 4 5 6 7 8 9 10 11 12 13 14 15 16 17 18 19 20 21 22 23 24 25 26 27 28 29 30 31 32 33 34 35 36 37 38 39 40 41 42 43 44 45 46 47 48 49 50

502
ASUS44 KMEG 250810
RWRTN
TENNESSEE HOURLY STATE WEATHER ROUNDUP
NATIONAL WEATHER SERVICE MEMPHIS TN
300 AM CDT THU AUG 25 2016

TNZ002-004-019-021-049-052-054-088>092-250900-
WEST TENNESSEE

CITY           SKY/WX    TMP DP  RH WIND       PRES   REMARKS
MEMPHIS INTL   PTCLDY    80  74  81 SW5       30.09S
NWS MEMPHIS      N/A     77 N/A N/A MISG        N/A
JACKSON        CLEAR     74  74 100 CALM      30.10S
DYERSBURG      CLEAR    N/A N/A N/A MISG        N/A
UNION CITY     CLEAR     72  72 100 CALM      30.08S
PARIS          CLEAR     72  72 100 CALM      30.11R
LEXINGTON      CLEAR     73  73 100 CALM      30.11R
$$

TNZ008-025-027-028-033-062-065-066-250900-
NORTH MIDDLE TENNESSEE

CITY           SKY/WX    TMP DP  RH WIND       PRES   REMARKS
NASHVILLE      PTCLDY    75  71  87 CALM      30.13R
CLARKSVILLE    CLEAR     73  72  96 CALM      30.11S FOG
COOKEVILLE     CLEAR     72  70  94 CALM      30.16R
CROSSVILLE     CLEAR     70  69  97 CALM      30.22R
$$

TNZ061-075-076-078-094-096-097-250900-
SOUTH MIDDLE TENNESSEE

CITY           SKY/WX    TMP DP  RH WIND       PRES   REMARKS
FAYETTEVILLE   CLOUDY    77  72  83 S5        30.16R
TULLAHOMA      CLEAR     73  70  88 CALM      30.18R
WINCHESTER     MOCLDY    73  72  94 SE3       30.17R
MCMINNVILLE    CLEAR     72  72 100 CALM      30.17R
COLUMBIA       CLEAR    N/A N/A N/A CALM      30.12R
SHELBYVILLE    CLEAR     75  73  94 SE3       30.16R
$$

TNZ017-018-042-046-047-250900-
NORTHEAST TENNESSEE

CITY           SKY/WX    TMP DP  RH WIND       PRES   REMARKS
TRI CITIES     PTCLDY    68  66  93 CALM      30.20S
ELIZABETHTON     N/A     70  66  88 VRB3      30.21S
$$

TNZ012-013-036-069-073-074-250900-
CENTRAL EAST TENNESSEE

CITY           SKY/WX    TMP DP  RH WIND       PRES   REMARKS
KNOXVILLE      PTCLDY    74  69  85 CALM      30.16S
OAK RIDGE      CLEAR     75  71  87 CALM      30.19R
GATLINBURG     PTCLDY    70  70 100 CALM      30.17R
MORRISTOWN     CLOUDY    72  70  94 CALM      30.19R
$$

TNZ083-085-099-250900-
SOUTHEAST TENNESSEE

CITY           SKY/WX    TMP DP  RH WIND       PRES   REMARKS
CHATTANOOGA    CLEAR     75  71  87 CALM      30.17R
$$

SKY/WX REPORTED AS FAIR MEANS FEW OR NO CLOUDS BELOW
12 THOUSAND FEET.





USA.gov is the U.S. government's official web portal to all federal, state and local government web resources and services.